sat.trackr.live / text

‹ back to catalog

STARLINK-33531

NORAD 63399 · 2025-065A

PAYLOAD ACTIVE UNKNOWN

§ Identity

Operator
Country
US
Launch date
2025-03-31
Launch site
AFETR
Launch vehicle
Mass (kg)
RCS (m²)

Purposes: comms

External: N2YO · Heavens-Above · Gunter

§ Orbital elements

Epoch: 2026-09-20T05:34:44.671872Z

Period
94.27 min
Inclination
42.9995°
Eccentricity
0.0000595
Mean motion
15.27569951 rev/d
Perigee alt
482.7 km
Apogee alt
483.5 km
Semi-major
6,861.2 km
B*
3.0737e-4
RAAN
88.3323°
Arg perigee
265.4099°
Mean anomaly
94.6684°
Rev number
8,259

§ Raw data

STARLINK-335311 63399U 25065A   26263.23246148  .00008203  00000+0  30737-3 0  99922 63399  42.9995  88.3323 0000595 265.4099  94.6684 15.27569951 82592

JSON: /api/v1/satellites/63399 · /tle

For live sub-satellite position, see the globe view (requires WebGL).

§ Visibility from observer

Set your observer location to see the next 7 days of passes ≥ 10°. The values pass through the URL so the page stays shareable.

No JS? Fill the form by hand. The geolocation button needs JavaScript.